Location: ??
(35.5052°N, 139.7262°E)
Time: 02:50:05
(UTC+00:00)

Cosmos 1300 - Pass Details

Date: 20 June 2021
Orbit: 509 x 513 km, 82.5° (Epoch: 26 July)

Event Time Altitude Azimuth Distance (km) Brightness Sun altitude
Rises 13:06:24 0° 341° (NNW) 2,628 7.6 -26.8°
Reaches altitude 10° 13:08:41 10° 331° (NNW) 1,736 6.4 -27.0°
Enters shadow 13:11:19 28° 292° (WNW) 971 4.4 -27.2°
